星链-11413 (STARLINK-11413)

导读 | 豆包AI

STARLINK-11413是美国太空探索技术公司(SpaceX)于2025年1月13日发射的星链(Starlink)卫星,属于SpaceX巨型低轨卫星互联网星座项目。该项目旨在搭建全球覆盖的卫星通信网络,提供高速稳定的宽带服务,同时具备潜在的军事应用价值,部署于近地轨道,为全球覆盖的天基通信系统构建提供支撑。

基本信息
目录编号:
62593
目录名称:
STARLINK-11413
国际标识:
2025-008G
轨道中心:
EARTH
卫星名称:
星链-11413
卫星全名:
星链-11413 (STARLINK-11413)
卫星状态:
在轨 (已飞行426 天)
发射日期:
2025-01-13 UTC
国别 :
美国 (US)
星等 :
--
轨道信息
数据来源 国际轨道数据
星历时间: 2026-03-14T17:52:11+0800
19小时前
查看轨道信息
半长轴: 6734.575km
偏心率: 0.0001589
轨道倾角: 42.998°
近地点辐角 247.574°
升交点赤经 97.988°
平近点角 112.496°
近地点: 355.367km
远地点: 357.509km
周期: 91.670分钟
每日圈数: 15.708602
详细信息
固有亮度:
5
最大亮度:
2.5
卫星平台:
Starlink V1.0
覆盖范围:
全球
运营商:
太空探索技术公司
运营商所在国:
美国
制造商(研发单位):
太空探索技术公司
制造商所在国:
美国
使用方式:
暂无
卫星简介
Starlink 计划是 SpaceX 推出的全球卫星互联网项目,通过发射低轨道卫星,为全球尤其是偏远地区提供高速、低延迟的互联网服务。自 2019 年起,Starlink 已部署数千颗卫星,旨在缩小全球数字鸿沟,推动互联网普及。该项目还为军事、航空等行业提供通信支持,带来广泛经济效益。
2D轨道图
3D轨道图
轨道高度分析图
轨道倾角分析图
轨道综合分析图
查看轨道综合分析图